Regional Weather Roundup
Issued by NWS

Home | Current Version | Previous Version | Graphics & Text | Print | Product List | Glossary On
Versions: 1 2 3 4 5 6 7 8 9 10 11 12 13 14 15 16 17 18 19 20 21 22 23 24 25 26 27 28 29 30 31 32 33 34 35 36 37 38 39 40 41 42 43 44 45 46 47 48 49 50
000
ASUS43 KFSD 182010
RWRSD

WEATHER ROUNDUP FOR SOUTH DAKOTA
NATIONAL WEATHER SERVICE SIOUX FALLS SD
300 PM CDT FRI APR 18 2014

NOTE: "FAIR" INDICATES FEW OR NO CLOUDS BELOW 12,000 FEET WITH NO
SIGNIFICANT WEATHER AND/OR OBSTRUCTIONS TO VISIBILITY.


SDZ001>005-009-010-012>017-182100-
NORTHWEST AND NORTH CENTRAL SOUTH DAKOTA

CITY           SKY/WX    TMP DP  RH WIND       PRES   REMARKS
BUFFALO          N/A     65  37  35 SE23G30   29.60F
FAITH            N/A     65  40  39 SE18G28   29.71F
MOBRIDGE       MOSUNNY   64  39  39 SE23      29.77F
$$

SDZ012>016-024>037-041>051-057-063-072>074-182100-
SOUTHWEST AND SOUTH CENTRAL SOUTH DAKOTA

CITY           SKY/WX    TMP DP  RH WIND       PRES   REMARKS
RAPID CTY ARPT CLOUDY    76  36  23 S26G32    29.68F
PIERRE         CLOUDY    76  40  27 S20G29    29.74F
CUSTER         CLOUDY    63  30  28 SW15G25   29.81F
ELLSWORTH AFB  CLOUDY    77  36  23 SW15      29.66F
PHILIP         MOSUNNY   80  40  23 S13G22    29.70F
PINE RIDGE     CLOUDY    75  42  30 S13       29.77F
SPEARFISH      FAIR      72  32  23 SW16G32   29.68F
WINNER         FAIR      79  33  19 S25G40    29.81F
$$

SDZ004>011-016>023-039-040-182100-
NORTHEAST SOUTH DAKOTA

CITY           SKY/WX    TMP DP  RH WIND       PRES   REMARKS
ABERDEEN       PTSUNNY   63  38  39 SE25G35   29.93F
WATERTOWN      SUNNY     57  37  47 SE29G43   30.02F
SISSETON         N/A     48  37  65 SE29G38   30.08F
$$

SDZ017-020-022-023-036>040-048>070-182100-
SOUTHEAST SOUTH DAKOTA

CITY           SKY/WX    TMP DP  RH WIND       PRES   REMARKS
SIOUX FALLS    PTSUNNY   64  35  34 S26G37    30.07F
HURON          SUNNY     70  38  31 S25G39    29.91F
CHAMBERLAIN      N/A     75  36  24 S35G43    29.83F
MITCHELL       SUNNY     70  40  33 S33G45    29.94F
YANKTON        SUNNY     66  39  37 S22G37    30.03F
$$

ABBREVIATIONS USED IN REMARKS
   TC - TEMPERATURE IN CELSIUS
  WCI - WIND CHILL INDEX
   HX - HEAT INDEX
  VSB - VISIBILITY




USA.gov is the U.S. government's official web portal to all federal, state and local government web resources and services.